TimeEST,TemperatureF,Dew PointF,Humidity,Sea Level PressureIn,VisibilityMPH,Wind Direction,Wind SpeedMPH,Gust SpeedMPH,PrecipitationIn,Events,Conditions,WindDirDegrees,DateUTC
12:15 AM,35.6,24.8,65,30.10,10.0,North,-9999.0,-,N/A,,Clear,0,2013-03-07 05:15:00
12:35 AM,35.6,24.8,65,30.10,10.0,North,-9999.0,-,N/A,,Clear,0,2013-03-07 05:35:00
12:55 AM,35.6,24.8,65,30.10,10.0,North,-9999.0,-,N/A,,Clear,0,2013-03-07 05:55:00
1:15 AM,35.6,24.8,65,30.11,10.0,North,-9999.0,-,N/A,,Clear,0,2013-03-07 06:15:00
1:35 AM,35.6,24.8,65,30.12,10.0,North,-9999.0,-,N/A,,Clear,0,2013-03-07 06:35:00
1:55 AM,35.6,24.8,65,30.11,10.0,North,-9999.0,-,N/A,,Clear,0,2013-03-07 06:55:00
2:15 AM,35.6,24.8,65,30.12,10.0,North,-9999.0,-,N/A,,Clear,0,2013-03-07 07:15:00
2:35 AM,33.8,24.8,70,30.12,10.0,North,-9999.0,-,N/A,,Clear,0,2013-03-07 07:35:00
2:55 AM,33.8,24.8,70,30.11,10.0,North,-9999.0,-,N/A,,Clear,0,2013-03-07 07:55:00
3:15 AM,33.8,24.8,70,30.12,10.0,North,-9999.0,-,N/A,,Clear,0,2013-03-07 08:15:00
3:35 AM,33.8,24.8,70,30.11,10.0,North,-9999.0,-,N/A,,Clear,0,2013-03-07 08:35:00
3:55 AM,32.0,24.8,75,30.12,10.0,North,-9999.0,-,N/A,,Clear,0,2013-03-07 08:55:00
4:15 AM,32.0,24.8,75,30.12,10.0,North,-9999.0,-,N/A,,Clear,0,2013-03-07 09:15:00
4:35 AM,32.0,24.8,75,30.12,10.0,North,-9999.0,-,N/A,,Clear,0,2013-03-07 09:35:00
4:55 AM,32.0,24.8,75,30.14,10.0,North,-9999.0,-,N/A,,Clear,0,2013-03-07 09:55:00
5:15 AM,32.0,24.8,75,30.15,10.0,North,-9999.0,-,N/A,,Clear,0,2013-03-07 10:15:00
5:35 AM,32.0,24.8,75,30.15,10.0,North,-9999.0,-,N/A,,Clear,0,2013-03-07 10:35:00
5:55 AM,32.0,24.8,75,30.17,10.0,North,-9999.0,-,N/A,,Clear,0,2013-03-07 10:55:00
6:15 AM,32.0,24.8,75,30.18,10.0,North,-9999.0,-,N/A,,Clear,0,2013-03-07 11:15:00
6:35 AM,32.0,24.8,75,30.18,10.0,North,-9999.0,-,N/A,,Clear,0,2013-03-07 11:35:00
6:55 AM,32.0,24.8,75,30.19,10.0,North,-9999.0,-,N/A,,Clear,0,2013-03-07 11:55:00
7:15 AM,33.8,24.8,70,30.20,10.0,North,-9999.0,-,N/A,,Clear,0,2013-03-07 12:15:00
7:35 AM,35.6,24.8,65,30.21,10.0,North,-9999.0,-,N/A,,Clear,0,2013-03-07 12:35:00
7:55 AM,35.6,24.8,65,30.22,10.0,North,-9999.0,-,N/A,,Clear,0,2013-03-07 12:55:00
8:15 AM,37.4,24.8,60,30.22,10.0,North,-9999.0,-,N/A,,Clear,0,2013-03-07 13:15:00
8:35 AM,39.2,24.8,56,30.23,10.0,North,-9999.0,-,N/A,,Clear,0,2013-03-07 13:35:00
8:55 AM,41.0,24.8,53,30.22,10.0,North,-9999.0,-,N/A,,Clear,0,2013-03-07 13:55:00
9:15 AM,41.0,24.8,53,30.22,10.0,North,-9999.0,-,N/A,,Clear,0,2013-03-07 14:15:00
9:35 AM,42.8,24.8,49,30.22,10.0,North,-9999.0,-,N/A,,Clear,0,2013-03-07 14:35:00
9:55 AM,44.6,24.8,46,30.21,10.0,North,-9999.0,-,N/A,,Clear,0,2013-03-07 14:55:00
10:15 AM,44.6,24.8,46,30.21,10.0,North,-9999.0,-,N/A,,Clear,0,2013-03-07 15:15:00
10:35 AM,44.6,24.8,46,30.21,10.0,North,-9999.0,-,N/A,,Clear,0,2013-03-07 15:35:00
10:55 AM,46.4,24.8,43,30.20,10.0,North,-9999.0,-,N/A,,Clear,0,2013-03-07 15:55:00
11:15 AM,46.4,24.8,43,30.20,10.0,North,-9999.0,-,N/A,,Clear,0,2013-03-07 16:15:00
11:35 AM,48.2,24.8,40,30.20,10.0,North,-9999.0,-,N/A,,Clear,0,2013-03-07 16:35:00
11:55 AM,48.2,24.8,40,30.19,10.0,North,-9999.0,-,N/A,,Clear,0,2013-03-07 16:55:00
12:15 PM,50.0,24.8,37,30.17,10.0,North,-9999.0,-,N/A,,Clear,0,2013-03-07 17:15:00
12:35 PM,50.0,24.8,37,30.17,10.0,North,-9999.0,-,N/A,,Clear,0,2013-03-07 17:35:00
12:55 PM,51.8,24.8,35,30.16,10.0,North,-9999.0,-,N/A,,Clear,0,2013-03-07 17:55:00
1:15 PM,51.8,26.6,38,30.15,10.0,North,-9999.0,-,N/A,,Clear,0,2013-03-07 18:15:00
1:35 PM,53.6,24.8,33,30.14,10.0,North,-9999.0,-,N/A,,Clear,0,2013-03-07 18:35:00
1:55 PM,53.6,26.6,35,30.13,10.0,North,-9999.0,-,N/A,,Clear,0,2013-03-07 18:55:00
2:15 PM,53.6,24.8,33,30.13,10.0,North,-9999.0,-,N/A,,Clear,0,2013-03-07 19:15:00
2:35 PM,53.6,24.8,33,30.13,10.0,North,-9999.0,-,N/A,,Clear,0,2013-03-07 19:35:00
2:55 PM,53.6,26.6,35,30.13,10.0,North,-9999.0,-,N/A,,Clear,0,2013-03-07 19:55:00
3:15 PM,53.6,26.6,35,30.13,10.0,North,-9999.0,-,N/A,,Clear,0,2013-03-07 20:15:00
3:35 PM,53.6,24.8,33,30.13,10.0,North,-9999.0,-,N/A,,Clear,0,2013-03-07 20:35:00
3:55 PM,53.6,26.6,35,30.13,10.0,North,-9999.0,-,N/A,,Clear,0,2013-03-07 20:55:00
4:15 PM,53.6,26.6,35,30.13,10.0,North,-9999.0,-,N/A,,Clear,0,2013-03-07 21:15:00
4:35 PM,53.6,24.8,33,30.13,10.0,North,-9999.0,-,N/A,,Clear,0,2013-03-07 21:35:00
4:55 PM,53.6,26.6,35,30.13,10.0,North,-9999.0,-,N/A,,Clear,0,2013-03-07 21:55:00
5:15 PM,53.6,26.6,35,30.14,10.0,North,-9999.0,-,N/A,,Clear,0,2013-03-07 22:15:00
5:35 PM,51.8,26.6,38,30.14,10.0,North,-9999.0,-,N/A,,Clear,0,2013-03-07 22:35:00
5:55 PM,50.0,26.6,40,30.15,10.0,North,-9999.0,-,N/A,,Clear,0,2013-03-07 22:55:00
6:15 PM,50.0,26.6,40,30.16,10.0,North,-9999.0,-,N/A,,Clear,0,2013-03-07 23:15:00
6:35 PM,48.2,26.6,43,30.17,10.0,North,-9999.0,-,N/A,,Clear,0,2013-03-07 23:35:00
6:55 PM,44.6,26.6,49,30.17,10.0,North,-9999.0,-,N/A,,Clear,0,2013-03-07 23:55:00
8:35 PM,44.6,26.6,49,30.20,10.0,North,-9999.0,-,N/A,,Clear,0,2013-03-08 01:35:00
8:55 PM,42.8,26.6,53,30.21,10.0,North,-9999.0,-,N/A,,Clear,0,2013-03-08 01:55:00
9:15 PM,42.8,26.6,53,30.22,10.0,North,-9999.0,-,N/A,,Clear,0,2013-03-08 02:15:00
9:35 PM,41.0,26.6,57,30.23,10.0,North,-9999.0,-,N/A,,Clear,0,2013-03-08 02:35:00
9:55 PM,41.0,26.6,57,30.24,10.0,North,-9999.0,-,N/A,,Clear,0,2013-03-08 02:55:00
10:15 PM,41.0,24.8,53,30.24,10.0,North,-9999.0,-,N/A,,Clear,0,2013-03-08 03:15:00
10:35 PM,39.2,24.8,56,30.24,10.0,North,-9999.0,-,N/A,,Unknown,0,2013-03-08 03:35:00
10:55 PM,39.2,24.8,56,30.25,10.0,North,-9999.0,-,N/A,,Clear,0,2013-03-08 03:55:00
11:15 PM,39.2,24.8,56,30.25,10.0,North,-9999.0,-,N/A,,Clear,0,2013-03-08 04:15:00
11:35 PM,39.2,23.0,52,30.25,10.0,North,-9999.0,-,N/A,,Clear,0,2013-03-08 04:35:00
11:55 PM,37.4,23.0,56,30.25,10.0,North,-9999.0,-,N/A,,Clear,0,2013-03-08 04:55:00